FW4013 Weather Reports


Display with metric or nautical units.
time (UTC)temp
F
wind
direction
speed
MPH
gust
MPH
rain 1hr
in
rain 24hr
in
rain mn
in
humidity
%
barometer
mb
20260506023045 61 252 3.0 10.0 0.00 0.00 0.00 62 1013.0
20260506022545 61 267 4.0 11.0 0.00 0.00 0.00 61 1012.9
20260506022045 61 239 4.0 11.0 0.00 0.00 0.00 61 1013.0
20260506021545 61 234 6.0 14.0 0.00 0.00 0.00 61 1012.9
20260506021045 61 270 6.0 14.0 0.00 0.00 0.00 61 1012.8
20260506020545 61 268 5.0 13.0 0.00 0.00 0.00 60 1013.0
20260506020045 62 259 5.0 12.0 0.00 0.00 0.00 60 1012.9
20260506015544 62 261 6.0 12.0 0.00 0.00 0.00 60 1012.9
20260506015045 62 243 4.0 10.0 0.00 0.00 0.00 59 1012.8
20260506014544 62 283 7.0 13.0 0.00 0.00 0.00 59 1012.7
20260506014045 62 245 6.0 13.0 0.00 0.00 0.00 59 1012.8
20260506013545 62 292 7.0 12.0 0.00 0.00 0.00 59 1012.8
20260506013044 62 249 5.0 14.0 0.00 0.00 0.00 59 1012.8
20260506012544 62 255 5.0 14.0 0.00 0.00 0.00 59 1012.8
20260506012104 62 266 6.0 12.0 0.00 0.00 0.00 58 1012.9
20260506011545 63 254 5.0 12.0 0.00 0.00 0.00 59 1012.9
20260506011045 63 283 6.0 15.0 0.00 0.00 0.00 57 1012.9
20260506010604 63 271 7.0 15.0 0.00 0.00 0.00 57 1012.9
20260506010104 63 262 7.0 15.0 0.00 0.00 0.00 57 1012.9
20260506005544 63 266 7.0 13.0 0.00 0.00 0.00 57 1012.9
20260506005046 63 257 7.0 14.0 0.00 0.00 0.00 57 1013.0
20260506004544 63 256 5.0 17.0 0.00 0.00 0.00 56 1012.9
20260506004045 63 265 6.0 17.0 0.00 0.00 0.00 56 1013.0
20260506003545 63 239 7.0 15.0 0.00 0.00 0.00 56 1012.9
20260506003105 63 242 6.0 14.0 0.00 0.00 0.00 55 1013.0
20260506002545 63 245 5.0 14.0 0.00 0.00 0.00 55 1012.8
20260506002104 64 261 6.0 13.0 0.00 0.00 0.00 55 1012.9
20260506001544 64 253 7.0 14.0 0.00 0.00 0.00 54 1012.9
20260506001044 64 239 6.0 14.0 0.00 0.00 0.00 54 1013.0
20260506000545 65 247 6.0 15.0 0.00 0.00 0.00 53 1013.0
20260506000045 64 247 6.0 15.0 0.00 0.00 0.00 53 1012.8
20260505235545 64 252 6.0 17.0 0.00 0.00 0.00 53 1013.0
20260505235045 65 256 7.0 17.0 0.00 0.00 0.00 53 1013.1
20260505234544 65 258 4.0 14.0 0.00 0.00 0.00 52 1013.0
20260505234044 65 266 7.0 15.0 0.00 0.00 0.00 52 1012.9
20260505233545 65 270 6.0 15.0 0.00 0.00 0.00 52 1013.2
20260505233045 65 275 4.0 15.0 0.00 0.00 0.00 53 1013.1
20260505232605 65 252 6.0 16.0 0.00 0.00 0.00 53 1013.0
20260505232044 65 249 8.0 16.0 0.00 0.00 0.00 53 1013.3
20260505231544 65 262 6.0 16.0 0.00 0.00 0.00 53 1013.1
20260505231105 65 243 6.0 17.0 0.00 0.00 0.00 53 1013.4
20260505230626 65 253 6.0 17.0 0.00 0.00 0.00 52 1013.3
20260505230044 65 261 9.0 16.0 0.00 0.00 0.00 52 1013.5
20260505225544 65 232 7.0 16.0 0.00 0.00 0.00 52 1013.3
20260505225045 65 270 5.0 16.0 0.00 0.00 0.00 52 1013.4
20260505224544 65 247 5.0 11.0 0.00 0.00 0.00 52 1013.5
20260505224104 65 245 5.0 12.0 0.00 0.00 0.00 52 1013.5
20260505223605 64 237 5.0 12.0 0.00 0.00 0.00 52 1013.6
20260505223045 64 270 4.0 16.0 0.00 0.00 0.00 52 1013.6
20260505222544 64 267 5.0 16.0 0.00 0.00 0.00 52 1013.8
20260505222044 65 241 6.0 15.0 0.00 0.00 0.00 52 1013.7
20260505221545 65 267 5.0 13.0 0.00 0.00 0.00 51 1013.4
20260505221104 65 183 4.0 13.0 0.00 0.00 0.00 51 1013.8
20260505220544 65 254 4.0 14.0 0.00 0.00 0.00 51 1013.8
20260505220044 65 250 4.0 21.0 0.00 0.00 0.00 51 1013.7
20260505215545 65 259 5.0 21.0 0.00 0.00 0.00 51 1013.8
20260505215105 64 221 6.0 16.0 0.00 0.00 0.00 51 1013.8
20260505214605 65 235 6.0 13.0 0.00 0.00 0.00 51 1013.8
20260505214044 65 266 4.0 13.0 0.00 0.00 0.00 51 1013.8
20260505213605 64 261 6.0 13.0 0.00 0.00 0.00 51 1013.8
20260505213045 64 262 5.0 12.0 0.00 0.00 0.00 51 1013.9
20260505212545 65 227 6.0 17.0 0.00 0.00 0.00 50 1014.0
20260505212104 65 261 4.0 17.0 0.00 0.00 0.00 50 1013.9
20260505211604 65 260 5.0 16.0 0.00 0.00 0.00 50 1013.9
20260505211045 65 260 6.0 16.0 0.00 0.00 0.00 50 1013.9
20260505210544 65 258 8.0 15.0 0.00 0.00 0.00 50 1014.0
20260505210044 65 232 7.0 14.0 0.00 0.00 0.00 50 1013.9
20260505205545 64 253 7.0 14.0 0.00 0.00 0.00 50 1014.0
20260505205044 65 228 7.0 16.0 0.00 0.00 0.00 50 1014.2
20260505204545 65 257 6.0 16.0 0.00 0.00 0.00 50 1014.1
20260505204044 64 257 5.0 16.0 0.00 0.00 0.00 50 1014.0
20260505203544 64 256 8.0 16.0 0.00 0.00 0.00 50 1014.2
20260505203044 64 269 7.0 15.0 0.00 0.00 0.00 50 1014.0
20260505202604 64 272 7.0 16.0 0.00 0.00 0.00 50 1014.1
20260505202045 64 267 8.0 16.0 0.00 0.00 0.00 50 1014.0
20260505201545 64 237 7.0 14.0 0.00 0.00 0.00 50 1014.2
20260505201044 64 249 4.0 14.0 0.00 0.00 0.00 50 1014.0
20260505200544 64 264 6.0 15.0 0.00 0.00 0.00 50 1014.0
20260505200045 64 233 3.0 15.0 0.00 0.00 0.00 51 1014.3
20260505195545 64 252 4.0 14.0 0.00 0.00 0.00 51 1014.0
20260505195044 64 234 5.0 14.0 0.00 0.00 0.00 50 1014.1
20260505194544 64 248 5.0 14.0 0.00 0.00 0.00 50 1014.2
20260505194044 64 260 6.0 13.0 0.00 0.00 0.00 50 1014.1
20260505193545 64 259 6.0 13.0 0.00 0.00 0.00 50 1014.1
20260505193105 64 262 5.0 12.0 0.00 0.00 0.00 50 1014.1
20260505192544 64 258 4.0 13.0 0.00 0.00 0.00 50 1014.1
20260505192044 64 224 4.0 13.0 0.00 0.00 0.00 50 1014.2
20260505191605 64 267 4.0 11.0 0.00 0.00 0.00 50 1014.1
20260505191044 64 247 4.0 11.0 0.00 0.00 0.00 49 1013.9
20260505190544 64 260 4.0 14.0 0.00 0.00 0.00 49 1013.7
20260505190044 63 230 4.0 14.0 0.00 0.00 0.00 50 1013.9
20260505185544 63 224 5.0 13.0 0.00 0.00 0.00 49 1013.9
20260505185045 63 236 5.0 13.0 0.00 0.00 0.00 49 1014.1
20260505184544 63 260 6.0 13.0 0.00 0.00 0.00 49 1014.0
20260505184044 63 221 5.0 14.0 0.00 0.00 0.00 50 1014.0
20260505183544 63 255 6.0 14.0 0.00 0.00 0.00 49 1014.0
20260505183105 63 247 8.0 13.0 0.00 0.00 0.00 49 1013.9
20260505182544 63 262 7.0 13.0 0.00 0.00 0.00 49 1014.0
20260505182044 63 237 5.0 11.0 0.00 0.00 0.00 49 1013.8
20260505181544 63 258 6.0 12.0 0.00 0.00 0.00 50 1013.9
20260505181045 63 260 6.0 12.0 0.00 0.00 0.00 50 1014.0
20260505180544 63 268 6.0 14.0 0.00 0.00 0.00 50 1013.9
20260505180044 62 276 6.0 14.0 0.00 0.00 0.00 50 1014.0
20260505175545 62 236 7.0 12.0 0.00 0.00 0.00 49 1014.0
20260505175125 63 234 6.0 13.0 0.00 0.00 0.00 49 1014.1
20260505174625 63 238 5.0 13.0 0.00 0.00 0.00 48 1014.0
20260505174044 62 256 4.0 11.0 0.00 0.00 0.00 47 1014.1
20260505173544 62 231 5.0 11.0 0.00 0.00 0.00 47 1014.2
20260505173044 63 260 3.0 10.0 0.00 0.00 0.00 47 1014.1
20260505172544 63 257 4.0 10.0 0.00 0.00 0.00 46 1014.1
20260505172044 63 207 3.0 9.0 0.00 0.00 0.00 45 1014.0
20260505171545 63 258 4.0 9.0 0.00 0.00 0.00 45 1014.0
20260505171045 62 249 3.0 9.0 0.00 0.00 0.00 45 1014.1
20260505170605 62 223 3.0 9.0 0.00 0.00 0.00 44 1014.1
20260505170045 62 227 5.0 9.0 0.00 0.00 0.00 43 1014.1
20260505165545 63 243 5.0 9.0 0.00 0.00 0.00 43 1014.1
20260505165104 63 241 3.0 9.0 0.00 0.00 0.00 43 1014.2
20260505164545 62 243 4.0 8.0 0.00 0.00 0.00 43 1014.2
20260505164044 62 224 4.0 7.0 0.00 0.00 0.00 43 1014.3
20260505163605 62 218 3.0 7.0 0.00 0.00 0.00 43 1014.2
20260505163045 62 251 3.0 7.0 0.00 0.00 0.00 43 1014.1
20260505162544 62 242 3.0 7.0 0.00 0.00 0.00 43 1014.2
20260505162044 62 247 4.0 8.0 0.00 0.00 0.00 43 1014.2
20260505161544 62 219 4.0 8.0 0.00 0.00 0.00 43 1014.1
20260505161045 62 238 4.0 6.0 0.00 0.00 0.00 43 1014.2
20260505160545 61 225 2.0 6.0 0.00 0.00 0.00 43 1014.2
20260505153044 60 167 1.0 3.0 0.00 0.00 0.00 44 1014.0
20260505152544 59 134 2.0 3.0 0.00 0.00 0.00 44 1014.1
20260505152044 60 195 1.0 3.0 0.00 0.00 0.00 44 1013.9
20260505151544 60 163 1.0 3.0 0.00 0.00 0.00 45 1014.0
20260505151045 61 154 2.0 3.0 0.00 0.00 0.00 44 1013.8
20260505150544 61 156 1.0 3.0 0.00 0.00 0.00 44 1013.9
20260505140604 58 119 1.0 2.0 0.00 0.00 0.00 46 1013.5
20260505124544 56 288 1.0 3.0 0.00 0.00 0.00 47 1012.8
20260505124045 57 314 2.0 3.0 0.00 0.00 0.00 47 1012.5
20260505123545 57 347 2.0 2.0 0.00 0.00 0.00 46 1012.5
20260505123045 58 359 1.0 2.0 0.00 0.00 0.00 46 1012.5
20260505122544 58 348 1.0 2.0 0.00 0.00 0.00 46 1012.5
20260505122105 57 1.0 2.0 0.00 0.00 0.00 46 1012.5
20260505121544 57 334 1.0 2.0 0.00 0.00 0.00 45 1012.5
20260505121104 58 346 1.0 3.0 0.00 0.00 0.00 46 1012.4
20260505120544 58 351 1.0 3.0 0.00 0.00 0.00 45 1012.5
20260505120046 58 349 2.0 3.0 0.00 0.00 0.00 45 1012.3
20260505115545 58 334 1.0 3.0 0.00 0.00 0.00 46 1012.3
20260505115045 58 343 2.0 3.0 0.00 0.00 0.00 45 1012.3
20260505114545 58 330 2.0 3.0 0.00 0.00 0.00 46 1012.3
20260505114044 59 353 2.0 3.0 0.00 0.00 0.00 45 1012.3
20260505113544 59 346 2.0 3.0 0.00 0.00 0.00 45 1012.4
20260505113045 59 359 2.0 3.0 0.00 0.00 0.00 45 1012.2
20260505112604 59 351 2.0 3.0 0.00 0.00 0.00 45 1012.2
20260505112044 58 344 2.0 2.0 0.00 0.00 0.00 45 1012.1
20260505111545 58 349 1.0 2.0 0.00 0.00 0.00 45 1012.1
20260505111045 58 354 2.0 2.0 0.00 0.00 0.00 45 1012.0
20260505110605 58 54 1.0 2.0 0.00 0.00 0.00 45 1012.1
20260505102045 59 341 1.0 3.0 0.00 0.00 0.00 44 1011.7
20260505101545 59 34 1.0 3.0 0.00 0.00 0.00 44 1011.5
20260505101044 60 318 2.0 3.0 0.00 0.00 0.00 43 1011.5
20260505100544 60 309 1.0 3.0 0.00 0.00 0.00 44 1011.4
20260505100044 60 36 2.0 4.0 0.00 0.00 0.00 44 1011.4
20260505095605 60 57 2.0 4.0 0.00 0.00 0.00 44 1011.3
20260505095044 59 59 2.0 4.0 0.00 0.00 0.00 45 1011.4
20260505094544 59 62 2.0 4.0 0.00 0.00 0.00 45 1011.4
20260505094044 60 93 2.0 4.0 0.00 0.00 0.00 43 1011.4
20260505093544 60 82 2.0 5.0 0.00 0.00 0.00 43 1011.4
20260505093045 60 74 2.0 5.0 0.00 0.00 0.00 43 1011.3
20260505092544 60 183 0.0 2.0 0.00 0.00 0.00 42 1011.3
20260505092105 60 281 1.0 2.0 0.00 0.00 0.00 42 1011.2
20260505091545 60 2 1.0 3.0 0.00 0.00 0.00 43 1011.2
20260505091045 61 325 2.0 3.0 0.00 0.00 0.00 43 1011.2
20260505090545 61 313 2.0 3.0 0.00 0.00 0.00 42 1011.3
20260505090045 61 323 1.0 4.0 0.00 0.00 0.00 42 1011.2
20260505085604 60 29 2.0 5.0 0.00 0.00 0.00 43 1011.2
20260505085044 61 61 2.0 5.0 0.00 0.00 0.00 42 1011.2
20260505084544 61 78 2.0 5.0 0.00 0.00 0.00 41 1011.2
20260505084044 62 28 1.0 5.0 0.00 0.00 0.00 41 1011.2
20260505083545 62 322 1.0 2.0 0.00 0.00 0.00 41 1011.2
20260505083044 62 5 1.0 4.0 0.00 0.00 0.00 41 1010.9
20260505082545 62 44 2.0 4.0 0.00 0.00 0.00 41 1011.1
20260505082044 62 67 2.0 4.0 0.00 0.00 0.00 41 1011.1
20260505081544 62 62 2.0 4.0 0.00 0.00 0.00 41 1011.0
20260505081044 63 67 1.0 6.0 0.00 0.00 0.00 41 1011.1
20260505080604 63 67 4.0 7.0 0.00 0.00 0.00 40 1011.1
20260505080045 62 109 2.0 7.0 0.00 0.00 0.00 40 1011.0
20260505075544 63 307 1.0 3.0 0.00 0.00 0.00 40 1011.2
20260505075044 63 326 1.0 3.0 0.00 0.00 0.00 40 1011.1
20260505074545 63 308 1.0 3.0 0.00 0.00 0.00 40 1011.0
20260505074045 63 324 1.0 3.0 0.00 0.00 0.00 40 1011.2
20260505073544 63 347 1.0 3.0 0.00 0.00 0.00 40 1011.2
20260505073044 64 355 1.0 4.0 0.00 0.00 0.00 40 1011.0
20260505072544 64 60 1.0 4.0 0.00 0.00 0.00 40 1011.1
20260505072044 64 71 2.0 4.0 0.00 0.00 0.00 39 1011.1
20260505071544 64 44 3.0 4.0 0.00 0.00 0.00 39 1010.9
20260505071044 64 37 1.0 3.0 0.00 0.00 0.00 40 1010.9
20260505070545 64 78 1.0 4.0 0.00 0.00 0.00 40 1010.8
20260505065544 64 313 1.0 3.0 0.00 0.00 0.00 39 1010.7
20260505065044 65 323 1.0 4.0 0.00 0.00 0.00 38 1010.7
20260505064544 65 19 1.0 4.0 0.00 0.00 0.00 38 1010.7
20260505064044 65 30 1.0 3.0 0.00 0.00 0.00 39 1010.7
20260505063544 65 345 1.0 3.0 0.00 0.00 0.00 38 1010.7
20260505063124 64 43 2.0 4.0 0.00 0.00 0.00 39 1010.6
20260505062604 65 356 1.0 7.0 0.00 0.00 0.00 39 1010.6
20260505062044 65 105 2.0 7.0 0.00 0.00 0.00 38 1010.5
20260505061544 65 339 1.0 4.0 0.00 0.00 0.00 38 1010.5
20260505061104 65 52 2.0 5.0 0.00 0.00 0.00 39 1010.4
20260505060544 65 344 1.0 5.0 0.00 0.00 0.00 38 1010.5
20260505060044 65 62 1.0 3.0 0.00 0.00 0.00 39 1010.4
20260505055544 65 8 1.0 3.0 0.00 0.00 0.00 39 1010.4
20260505055044 66 338 1.0 5.0 0.00 0.00 0.00 38 1010.5
20260505054544 66 55 2.0 5.0 0.00 0.00 0.00 39 1010.5
20260505054044 65 345 1.0 5.0 0.00 0.00 0.00 38 1010.3
20260505053545 65 32 1.0 3.0 0.00 0.00 0.00 39 1010.4
20260505053044 65 39 1.0 4.0 0.00 0.00 0.00 38 1010.4
20260505052544 65 26 2.0 4.0 0.00 0.00 0.00 38 1009.9
20260505052044 65 10 1.0 3.0 0.00 0.00 0.00 38 1010.0
20260505051544 66 32 1.0 4.0 0.00 0.00 0.00 37 1010.0
20260505051044 66 339 0.0 4.0 0.00 0.00 0.00 36 1010.1
20260505050544 65 40 1.0 2.0 0.00 0.00 0.00 37 1010.0
20260505050104 66 210 1.0 5.0 0.00 0.00 0.00 36 1010.0
20260505041604 67 67 2.0 4.0 0.00 0.00 0.00 35 1009.5
20260505041044 68 124 1.0 4.0 0.00 0.00 0.00 34 1009.5
20260505040544 68 289 1.0 4.0 0.00 0.00 0.00 34 1009.4
20260505040044 68 335 1.0 3.0 0.00 0.00 0.00 34 1009.3
20260505035604 67 317 2.0 3.0 0.00 0.00 0.00 34 1009.2
20260505035044 68 25 2.0 3.0 0.00 0.00 0.00 34 1009.1
20260505034544 69 102 1.0 3.0 0.00 0.00 0.00 33 1009.1
20260505034044 68 355 2.0 3.0 0.00 0.00 0.00 33 1008.9
20260505033544 68 293 1.0 2.0 0.00 0.00 0.00 32 1008.9
20260505033045 68 126 1.0 3.0 0.00 0.00 0.00 32 1008.7
20260505032544 67 355 1.0 3.0 0.00 0.00 0.00 33 1008.8
20260505032044 67 344 1.0 2.0 0.00 0.00 0.00 32 1008.6
20260505031544 68 312 1.0 3.0 0.00 0.00 0.00 31 1008.8
20260505030604 68 263 1.0 5.0 0.00 0.00 0.00 30 1008.5
20260505030044 69 303 2.0 5.0 0.00 0.00 0.00 30 1008.5
20260505025544 69 251 2.0 5.0 0.00 0.00 0.00 30 1008.5
20260505025044 70 284 2.0 6.0 0.00 0.00 0.00 30 1008.5
20260505024544 70 282 2.0 6.0 0.00 0.00 0.00 30 1008.3
20260505024124 70 314 2.0 6.0 0.00 0.00 0.00 31 1008.5
20260505023544 71 290 3.0 7.0 0.00 0.00 0.00 31 1008.3